Location: Aufkirchen
(47.9603°N, 11.3653°E)
Time: 09:46:35
(UTC+02:00)

Altair - Pass Details

Date: 07 August 2021
Orbit: 1501 x 1682 km, 47.2° (Epoch: 18 September)

Event Time Altitude Azimuth Distance (km) Brightness Sun altitude
Exits shadow 03:32:22 11° 260° (W) 3,698 9.1 -19.2°
Maximum altitude 03:41:41 85° 173° (S) 1,531 7.4 -18.3°
Drops below altitude 10° 03:50:53 10° 87° (E) 3,656 10.0 -17.4°
Sets 03:53:53 0° 87° (E) 4,634 10.7 -17.1°
